Sussex, NJ

7:05 AM EST on November 13, 2019 (GMT -0500)
Sussex

Weather History for KFWN - September, 2019

Change the Weather History Date:

Saturday, September 7, 2019

  Actual Average Record
Temperature  
Mean Temperature 60 °F -  
Max Temperature 75 °F 78 °F 93 °F (1983)
Min Temperature 48 °F 51 °F 35 °F (1984)
Degree Days  
Heating Degree Days 4    
Growing Degree Days 10 (Base 50)    
Moisture  
Dew Point 51 °F    
Average Humidity 84    
Maximum Humidity 100    
Minimum Humidity 46    
Precipitation  
Precipitation 0.00 in - - ()
Sea Level Pressure  
Sea Level Pressure 29.82 in    
Wind  
Wind Speed 2 mph ()    
Max Wind Speed 8 mph    
Max Gust Speed 17 mph    
Visibility 5.9 miles    
Events Fog    
Averages and records for this station are not official NWS values.
T = Trace of Precipitation, MM = Missing Value Source: Averaged Metar Reports

Daily Weather History Graph

Daily Weather History Graph

Search for Another Location

Airport or City:

Astronomy

Sep. 07, 2019 Rise Set
Actual Time 6:30 AM EDT 7:21 PM EDT
Civil Twilight 6:02 AM EDT 7:49 PM EDT
Nautical Twilight 5:29 AM EDT 8:22 PM EDT
Astronomical Twilight 4:54 AM EDT 8:57 PM EDT
Moon 3:37 PM EDT (9/7) 12:18 AM EDT (9/7)
Length of Visible Light 13h 46m
Length of Day
12h 50m
Waxing Gibbous, 65% of the Moon is Illuminated
Sep 7
Waxing Gibbous
Sep 14
Full
Sep 21
Last Quarter
Sep 28
New
Oct 5
First Quarter

Hourly Weather History & Observations

Time (EDT) Temp. Dew Point Humidity Pressure Visibility Wind Dir Wind Speed Gust Speed Precip Events Conditions
12:11 AM 57.0 °F 54.0 °F 89% 29.82 in 9.0 mi NE 8.1 mph - N/A   Overcast
12:53 AM 57.0 °F 54.0 °F 89% 29.81 in 10.0 mi NNE 6.9 mph - N/A   Overcast
1:53 AM 55.0 °F 53.1 °F 93% 29.80 in 10.0 mi NNE 3.5 mph - N/A   Clear
2:40 AM 53.1 °F 51.1 °F 93% 29.80 in 1.8 mi Calm Calm - N/A   Clear
2:49 AM 53.6 °F 51.8 °F 94% 29.79 in 3.0 mi Calm Calm - N/A   Clear
2:53 AM 53.1 °F 51.1 °F 93% 29.79 in 8.0 mi Calm Calm - N/A   Clear
3:36 AM 51.1 °F 50.0 °F 96% 29.79 in 0.8 mi Calm Calm - 0.00 in   Clear
3:50 AM 51.8 °F 50.0 °F 94% 29.79 in 0.5 mi Calm Calm - 0.00 in Fog Fog
3:53 AM 51.1 °F 50.0 °F 96% 29.79 in 0.5 mi Calm Calm - 0.00 in Fog Fog
3:58 AM 52.0 °F 50.0 °F 93% 29.79 in 1.2 mi Calm Calm - N/A   Partly Cloudy
4:03 AM 51.1 °F 48.9 °F 92% 29.80 in 2.0 mi Calm Calm - N/A   Partly Cloudy
4:09 AM 51.1 °F 50.0 °F 96% 29.79 in 1.2 mi Calm Calm - N/A   Partly Cloudy
4:17 AM 51.1 °F 50.0 °F 96% 29.80 in 2.0 mi Calm Calm - N/A   Partly Cloudy
4:24 AM 50.0 °F 48.9 °F 96% 29.80 in 5.0 mi Calm Calm - N/A   Clear
4:28 AM 50.0 °F 48.9 °F 96% 29.80 in 2.0 mi Calm Calm - N/A   Partly Cloudy
4:30 AM 50.0 °F 48.9 °F 96% 29.80 in 1.0 mi Calm Calm - N/A   Mist
4:40 AM 50.0 °F 48.0 °F 93% 29.80 in 0.5 mi Calm Calm - N/A Fog Fog
4:53 AM 50.0 °F 48.9 °F 96% 29.80 in 0.5 mi Calm Calm - N/A Fog Fog
4:57 AM 50.0 °F 48.9 °F 96% 29.80 in 1.8 mi Calm Calm - N/A   Scattered Clouds
5:04 AM 50.0 °F 48.9 °F 96% 29.80 in 5.0 mi Calm Calm - N/A   Scattered Clouds
5:53 AM 48.0 °F 46.9 °F 96% 29.81 in 0.2 mi Calm Calm - N/A Fog Fog
6:53 AM 48.9 °F 46.9 °F 93% 29.83 in 0.2 mi Calm Calm - N/A Fog Fog
7:35 AM 50.0 °F 48.9 °F 96% 29.84 in 1.5 mi Calm Calm - N/A   Mostly Cloudy
7:37 AM 50.0 °F 48.9 °F 96% 29.84 in 3.0 mi Calm Calm - N/A   Mostly Cloudy
7:49 AM 51.8 °F 51.8 °F 100% 29.84 in 9.0 mi Calm Calm - N/A   Scattered Clouds
7:53 AM 52.0 °F 51.1 °F 97% 29.84 in 9.0 mi Calm Calm - N/A   Partly Cloudy
8:53 AM 57.0 °F 54.0 °F 89% 29.84 in 10.0 mi Calm Calm - N/A   Clear
9:53 AM 63.0 °F 54.0 °F 72% 29.84 in 10.0 mi SE 3.5 mph - N/A   Partly Cloudy
10:53 AM 68.0 °F 52.0 °F 56% 29.83 in 10.0 mi Variable 5.8 mph - N/A   Clear
11:53 AM 71.1 °F 52.0 °F 51% 29.82 in 10.0 mi NW 8.1 mph 17.3 mph N/A   Scattered Clouds
12:53 PM 73.0 °F 53.1 °F 49% 29.82 in 10.0 mi NW 6.9 mph 16.1 mph N/A   Mostly Cloudy
1:53 PM 73.9 °F 52.0 °F 46% 29.82 in 10.0 mi Variable 3.5 mph - N/A   Mostly Cloudy
2:53 PM 73.9 °F 53.1 °F 48% 29.82 in 10.0 mi Variable 6.9 mph - N/A   Overcast
3:53 PM 73.0 °F 53.1 °F 49% 29.82 in 10.0 mi Variable 4.6 mph - N/A   Overcast
4:53 PM 73.0 °F 52.0 °F 48% 29.83 in 10.0 mi Variable 6.9 mph - N/A   Overcast
5:53 PM 72.0 °F 53.1 °F 51% 29.84 in 10.0 mi NW 4.6 mph - N/A   Scattered Clouds
6:53 PM 66.9 °F 55.0 °F 66% 29.86 in 10.0 mi Calm Calm - N/A   Partly Cloudy
7:53 PM 62.1 °F 55.0 °F 78% 29.87 in 10.0 mi Calm Calm - N/A   Partly Cloudy
8:53 PM 57.9 °F 55.0 °F 90% 29.90 in 10.0 mi Calm Calm - N/A   Clear
9:53 PM 57.9 °F 54.0 °F 87% 29.91 in 10.0 mi Calm Calm - N/A   Partly Cloudy
10:53 PM 57.0 °F 54.0 °F 89% 29.92 in 10.0 mi Calm Calm - N/A   Scattered Clouds
11:53 PM 55.9 °F 53.1 °F 90% 29.93 in 10.0 mi Calm Calm - N/A   Clear